Weather History for Greenwood, MS

Change the Weather History Date:

Sunday, October 27, 2013

  Actual Average Record
Temperature  
Mean Temperature 58 °F 61 °F  
Max Temperature 66 °F 73 °F 87 °F (1996)
Min Temperature 49 °F 48 °F 31 °F (2005)
Degree Days  
Heating Degree Days 7 6  
Month to date heating degree days 114 93  
Since 1 July heating degree days 114 105  
Cooling Degree Days 0 2  
Month to date cooling degree days 101 89  
Year to date cooling degree days 2081 2136  
Growing Degree Days 7 (Base 50)    
Moisture  
Dew Point 55 °F    
Average Humidity 85    
Maximum Humidity 100    
Minimum Humidity 69    
Precipitation  
Precipitation 0.13 in 0.12 in 1.91 in (1980)
Month to date precipitation 1.14 3.40  
Year to date precipitation 47.48 41.13  
Sea Level Pressure  
Sea Level Pressure 30.09 in    
Wind  
Wind Speed 4 mph (SSW)    
Max Wind Speed 16 mph    
Max Gust Speed 21 mph    
Visibility 8 miles    
Events Fog , Rain    
T = Trace of Precipitation, MM = Missing Value Source: NWS Daily Summary

Daily Weather History Graph

Daily Weather History Graph

Search for Another Location

Airport:

Trip Planner

Search our weather history database for the weather conditions in past years. The results will help you decide how hot, cold, wet, or windy it might be!

Date:

Astronomy

Oct. 27, 2013 Rise Set
Actual Time 7:14 AM CDT 6:12 PM CDT
Civil Twilight 6:49 AM CDT 6:38 PM CDT
Nautical Twilight 6:20 AM CDT 7:07 PM CDT
Astronomical Twilight 5:51 AM CDT 7:36 PM CDT
Moon 12:31 AM CDT (10/27) 2:03 PM CDT (10/27)
Length of Visible Light 11h 48m
Length of Day
10h 57m
Last Quarter, 43% of the Moon is Illuminated
Oct 27
Last Quarter
Nov 3
New
Nov 9
First Quarter
Nov 17
Full
Nov 25
Last Quarter

Hourly Weather History & Observations

Time (CDT) Temp. Dew Point Humidity Pressure Visibility Wind Dir Wind Speed Gust Speed Precip Events Conditions
12:53 AM 52.0 °F 50.0 °F 93% 30.13 in 10.0 mi Calm Calm - N/A   Overcast
1:53 AM 53.1 °F 51.1 °F 93% 30.12 in 10.0 mi Calm Calm - N/A   Overcast
2:53 AM 54.0 °F 52.0 °F 93% 30.11 in 10.0 mi Calm Calm - N/A   Overcast
3:53 AM 54.0 °F 52.0 °F 93% 30.10 in 10.0 mi Calm Calm - N/A   Overcast
4:53 AM 53.1 °F 51.1 °F 93% 30.09 in 10.0 mi Calm Calm - N/A   Overcast
5:53 AM 52.0 °F 50.0 °F 93% 30.10 in 10.0 mi Calm Calm - N/A   Partly Cloudy
6:53 AM 50.0 °F 48.0 °F 93% 30.10 in 10.0 mi Calm Calm - N/A   Clear
7:53 AM 52.0 °F 50.0 °F 93% 30.10 in 10.0 mi Calm Calm - N/A   Clear
8:53 AM 57.9 °F 51.1 °F 78% 30.12 in 10.0 mi Calm Calm - N/A   Clear
9:53 AM 60.1 °F 50.0 °F 69% 30.12 in 10.0 mi South 5.8 mph - N/A   Clear
10:53 AM 61.0 °F 52.0 °F 72% 30.12 in 10.0 mi SSE 4.6 mph - 0.00 in Rain Light Rain
11:53 AM 61.0 °F 54.0 °F 78% 30.12 in 10.0 mi South 13.8 mph - 0.00 in Rain Light Rain
12:53 PM 61.0 °F 55.9 °F 83% 30.09 in 10.0 mi South 9.2 mph - 0.00 in   Overcast
1:53 PM 64.0 °F 55.9 °F 75% 30.07 in 10.0 mi South 11.5 mph - N/A   Overcast
2:53 PM 64.0 °F 55.9 °F 75% 30.05 in 10.0 mi South 13.8 mph - N/A   Overcast
3:53 PM 64.9 °F 57.0 °F 75% 30.05 in 10.0 mi South 9.2 mph - N/A   Overcast
4:53 PM 63.0 °F 57.0 °F 81% 30.05 in 9.0 mi South 8.1 mph - 0.01 in Rain Light Rain
5:53 PM 61.0 °F 57.9 °F 90% 30.05 in 7.0 mi SSW 5.8 mph - 0.00 in Rain Light Rain
6:07 PM 60.8 °F 57.2 °F 88% 30.06 in 2.0 mi SSW 5.8 mph - 0.04 in Rain Heavy Rain
6:27 PM 60.8 °F 59.0 °F 94% 30.06 in 5.0 mi South 6.9 mph - 0.10 in Rain Rain
6:53 PM 60.1 °F 57.9 °F 93% 30.06 in 8.0 mi SSW 6.9 mph - 0.11 in Rain Light Rain
7:15 PM 60.8 °F 57.2 °F 88% 30.07 in 9.0 mi SW 3.5 mph - 0.01 in Rain Light Rain
7:53 PM 60.1 °F 59.0 °F 96% 30.08 in 8.0 mi SW 3.5 mph - 0.01 in   Overcast
8:08 PM 60.8 °F 59.0 °F 94% 30.08 in 8.0 mi SSW 5.8 mph - N/A   Overcast
8:53 PM 60.1 °F 59.0 °F 96% 30.09 in 8.0 mi SSW 3.5 mph - N/A   Overcast
9:53 PM 60.1 °F 59.0 °F 96% 30.10 in 8.0 mi Calm Calm - N/A   Overcast
10:53 PM 60.1 °F 59.0 °F 96% 30.11 in 7.0 mi South 4.6 mph - N/A   Overcast
11:03 PM 60.8 °F 59.0 °F 94% 30.11 in 7.0 mi SSW 3.5 mph - N/A   Overcast
11:23 PM 59.0 °F 57.2 °F 94% 30.11 in 4.0 mi Calm Calm - N/A   Mostly Cloudy
11:30 PM 59.0 °F 57.2 °F 94% 30.11 in 1.5 mi Calm Calm - N/A   Scattered Clouds
11:38 PM 57.2 °F 57.2 °F 100% 30.11 in 0.2 mi Calm Calm - N/A Fog Fog
11:48 PM 57.2 °F 57.2 °F 100% 30.11 in 0.2 mi Calm Calm - N/A Fog Fog
11:53 PM 57.0 °F 57.0 °F 100% 30.11 in 0.2 mi Calm Calm - N/A Fog Fog